User: anonymous   Login
Location: Drayton Valley
(53.2170°N, 114.9830°W)
Time: 14:21:37
(UTC-06:00)
Language:

MOZ.5/SAFIR/RUBIN 5/SL-8 - Orbit

View from above orbital plane
View from above orbital plane
View from above satellite
View from above satellite

Ground track
Ground track

The orbit data is extracted from the following two-line orbital elements,

1 28898U 05043G   15148.50458804  .00000205  00000-0  51723-4 0  9999
2 28898 097.8454 324.1669 0020632 032.8615 327.3865 14.59902469510293
Epoch (UTC): 28 May 2015 12:06:36
Eccentricity: 0.0020632
inclination: 97.8454°
perigee height: 679 km
apogee height: 708 km
right ascension of ascending node: 324.1669°
argument of perigee: 32.8615°
revolutions per day: 14.59902469
mean anomaly at epoch: 327.3865°
orbit number at epoch: 51029

The dashed part of the orbit path shows where the satellite is in the earth's shadow,  

DLR